GW3336 Weather Reports


time (UTC)temp
C
wind
direction
speed
KPH
gust
KPH
rain 1hr
cm
rain 24hr
cm
rain mn
cm
humidity
%
barometer
mb
20260502180653 18 249 6.4 9.7 0.00 0.00 0.00 39 1012.1
20260502180150 18 275 6.4 9.7 0.00 0.00 0.00 39 1012.3
20260502170114 16 266 11.3 14.5 0.00 0.00 0.00 43 1013.2
20260502164101 16 279 4.8 4.8 0.00 0.00 0.00 43 1013.4
20260502163556 15 280 8.0 9.7 0.00 0.00 0.00 43 1013.4
20260502163053 15 239 12.9 16.1 0.00 0.00 0.00 44 1013.6
20260502162550 15 271 12.9 14.5 0.00 0.00 0.00 45 1013.8
20260502162048 14 241 8.0 9.7 0.00 0.00 0.00 47 1013.7
20260502161544 14 223 6.4 9.7 0.00 0.00 0.00 46 1013.9
20260502161042 14 271 9.7 11.3 0.00 0.00 0.00 47 1014.0
20260502160540 13 291 6.4 9.7 0.00 0.00 0.00 49 1013.8
20260502151953 12 241 8.0 11.3 0.00 0.00 0.00 49 1014.6
20260502151449 12 251 6.4 6.4 0.00 0.00 0.00 50 1014.6
20260502150947 13 260 9.7 11.3 0.00 0.00 0.00 49 1014.7
20260502150444 12 236 11.3 14.5 0.00 0.00 0.00 49 1014.6
20260502130329 6 186 6.4 9.7 0.00 0.00 0.00 72 1016.3
20260502123814 5 198 4.8 4.8 0.00 0.00 0.00 73 1016.6
20260502123312 4 190 3.2 4.8 0.00 0.00 0.00 75 1016.4
20260502122808 4 187 4.8 4.8 0.00 0.00 0.00 75 1016.3
20260502122306 4 196 3.2 4.8 0.00 0.00 0.00 75 1016.4
20260502121803 3 185 3.2 3.2 0.00 0.00 0.00 76 1016.4
20260502121300 3 188 3.2 3.2 0.00 0.00 0.00 76 1016.5
20260502120757 3 188 3.2 3.2 0.00 0.00 0.00 77 1016.4
20260502120253 3 194 1.6 1.6 0.00 0.00 0.00 77 1016.3
20260502115751 2 244 0.0 0.0 0.00 0.00 0.00 77 1016.3
20260502115248 2 244 0.0 0.0 0.00 0.00 0.00 77 1016.5
20260502114744 2 260 0.0 0.0 0.00 0.00 0.00 77 1016.8
20260502114241 2 262 0.0 0.0 0.00 0.00 0.00 78 1016.9
20260502113738 2 262 0.0 0.0 0.00 0.00 0.00 78 1016.8
20260502113236 2 262 0.0 0.0 0.00 0.00 0.00 79 1016.7
20260502112734 2 262 0.0 0.0 0.00 0.00 0.00 79 1016.7
20260502112231 2 262 0.0 0.0 0.00 0.00 0.00 80 1016.9
20260502111728 2 261 0.0 0.0 0.00 0.00 0.00 80 1016.7
20260502111226 1 261 0.0 0.0 0.00 0.00 0.00 82 1016.7
20260502110723 1 263 0.0 0.0 0.00 0.00 0.00 83 1016.7
20260502110221 1 263 0.0 0.0 0.00 0.00 0.00 81 1017.1
20260502105719 1 263 0.0 0.0 0.00 0.00 0.00 81 1016.8
20260502105214 1 263 0.0 0.0 0.00 0.00 0.00 80 1017.0
20260502104712 1 263 0.0 0.0 0.00 0.00 0.00 79 1016.8
20260502104210 2 263 0.0 0.0 0.00 0.00 0.00 78 1016.9
20260502103707 2 263 0.0 0.0 0.00 0.00 0.00 79 1017.1
20260502103205 1 278 0.0 0.0 0.00 0.00 0.00 79 1017.0
20260502102701 1 278 0.0 0.0 0.00 0.00 0.00 79 1017.1
20260502102158 1 278 0.0 0.0 0.00 0.00 0.00 80 1017.3
20260502101656 1 279 0.0 0.0 0.00 0.00 0.00 80 1017.3
20260502101154 1 279 0.0 0.0 0.00 0.00 0.00 79 1017.3
20260502100652 1 288 0.0 0.0 0.00 0.00 0.00 79 1017.5
20260502100150 1 288 0.0 0.0 0.00 0.00 0.00 79 1017.4
20260502091124 1 288 0.0 0.0 0.00 0.00 0.00 77 1017.6
20260502090621 1 288 0.0 0.0 0.00 0.00 0.00 77 1017.8
20260502090118 2 288 0.0 0.0 0.00 0.00 0.00 77 1017.5
20260502071516 2 304 0.0 0.0 0.00 0.00 0.00 74 1018.1
20260502071014 1 325 0.0 0.0 0.00 0.00 0.00 74 1018.2
20260502070511 2 326 0.0 0.0 0.00 0.00 0.00 70 1018.2
20260502070009 2 327 0.0 0.0 0.00 0.00 0.00 69 1018.4
20260502065508 1 337 0.0 0.0 0.00 0.00 0.00 70 1018.5
20260502065005 0 337 0.0 0.0 0.00 0.00 0.00 75 1018.5
20260502064504 0 337 0.0 0.0 0.00 0.00 0.00 79 1018.3
20260502064000 0 337 0.0 0.0 0.00 0.00 0.00 78 1018.5
20260502063458 0 337 0.0 0.0 0.00 0.00 0.00 77 1018.5
20260502062955 0 337 0.0 0.0 0.00 0.00 0.00 77 1018.5
20260502062452 0 338 0.0 0.0 0.00 0.00 0.00 77 1018.6
20260502061951 0 337 0.0 0.0 0.00 0.00 0.00 77 1018.3
20260502061449 0 337 0.0 0.0 0.00 0.00 0.00 77 1018.6
20260502060944 0 338 0.0 0.0 0.00 0.00 0.00 78 1018.5
20260502060440 0 337 0.0 0.0 0.00 0.00 0.00 77 1018.3
20260502055936 0 337 0.0 0.0 0.00 0.00 0.00 75 1018.5
20260502055434 0 337 0.0 0.0 0.00 0.00 0.00 74 1018.5
20260502054929 1 337 0.0 0.0 0.00 0.00 0.00 74 1018.3
20260502054426 1 337 0.0 0.0 0.00 0.00 0.00 72 1018.5
20260502053924 1 337 0.0 0.0 0.00 0.00 0.00 72 1018.4
20260502053420 1 337 0.0 0.0 0.00 0.00 0.00 72 1018.6
20260502052918 1 338 0.0 0.0 0.00 0.00 0.00 72 1018.8
20260502052416 0 338 0.0 0.0 0.00 0.00 0.00 72 1018.9
20260502051914 0 338 0.0 0.0 0.00 0.00 0.00 73 1018.9
20260502051412 0 337 0.0 0.0 0.00 0.00 0.00 74 1018.6
20260502050908 0 337 0.0 0.0 0.00 0.00 0.00 75 1018.6
20260502050405 0 337 0.0 0.0 0.00 0.00 0.00 75 1018.8
20260502045903 1 338 0.0 0.0 0.00 0.00 0.00 74 1018.8
20260502045359 1 337 0.0 0.0 0.00 0.00 0.00 72 1018.4
20260502044855 1 337 0.0 0.0 0.00 0.00 0.00 71 1018.5
20260502044346 1 337 0.0 0.0 0.00 0.00 0.00 73 1018.9
20260502043843 1 337 0.0 0.0 0.00 0.00 0.00 73 1018.8
20260502043341 1 337 0.0 0.0 0.00 0.00 0.00 71 1019.0
20260502042840 1 337 0.0 0.0 0.00 0.00 0.00 71 1019.0
20260502042338 1 337 0.0 0.0 0.00 0.00 0.00 71 1019.0
20260502041835 1 337 0.0 0.0 0.00 0.00 0.00 72 1019.0
20260502041332 1 337 0.0 0.0 0.00 0.00 0.00 70 1018.9
20260502040829 1 337 0.0 0.0 0.00 0.00 0.00 70 1019.2
20260502040326 2 337 0.0 0.0 0.00 0.00 0.00 70 1019.0
20260502035822 1 337 0.0 0.0 0.00 0.00 0.00 71 1018.9
20260502035319 2 337 0.0 0.0 0.00 0.00 0.00 71 1019.2
20260502034816 2 338 0.0 0.0 0.00 0.00 0.00 71 1019.1
20260502034315 2 337 0.0 0.0 0.00 0.00 0.00 70 1019.1
20260502033813 2 337 0.0 0.0 0.00 0.00 0.00 70 1019.3
20260502033310 2 338 0.0 0.0 0.00 0.00 0.00 70 1018.9
20260502032807 2 338 0.0 0.0 0.00 0.00 0.00 69 1019.1
20260502032305 2 337 0.0 0.0 0.00 0.00 0.00 69 1019.1
20260502031801 2 337 0.0 0.0 0.00 0.00 0.00 68 1019.0
20260502031259 3 337 0.0 0.0 0.00 0.00 0.00 65 1019.1
20260502030757 3 337 0.0 0.0 0.00 0.00 0.00 65 1019.2
20260502030254 3 337 0.0 0.0 0.00 0.00 0.00 64 1019.3
20260502025752 3 337 0.0 0.0 0.00 0.00 0.00 63 1019.0
20260502025250 3 337 0.0 0.0 0.00 0.00 0.00 62 1019.2
20260502024747 3 337 0.0 0.0 0.00 0.00 0.00 62 1019.1
20260502024245 3 337 0.0 0.0 0.00 0.00 0.00 62 1019.1
20260502023743 4 337 0.0 0.0 0.00 0.00 0.00 61 1019.1
20260502023240 5 337 0.0 0.0 0.00 0.00 0.00 60 1018.9
20260502022738 5 337 0.0 0.0 0.00 0.00 0.00 58 1019.0
20260502022233 5 337 0.0 0.0 0.00 0.00 0.00 58 1019.1
20260502021731 5 337 0.0 0.0 0.00 0.00 0.00 57 1019.1
20260502021228 5 337 0.0 0.0 0.00 0.00 0.00 57 1018.6
20260502020725 6 337 0.0 0.0 0.00 0.00 0.00 56 1018.8
20260502020222 6 337 0.0 0.0 0.00 0.00 0.00 55 1018.5
20260502015720 6 337 0.0 0.0 0.00 0.00 0.00 52 1018.6
20260502015216 6 337 0.0 0.0 0.00 0.00 0.00 55 1018.6
20260502014714 7 337 0.0 0.0 0.00 0.00 0.00 58 1018.6
20260502014211 7 337 0.0 0.0 0.00 0.00 0.00 57 1018.6
20260502013707 8 337 0.0 0.0 0.00 0.00 0.00 53 1018.8
20260502013202 9 337 0.0 0.0 0.00 0.00 0.00 54 1018.6
20260502012659 9 337 0.0 0.0 0.00 0.00 0.00 49 1018.8
20260502012158 9 337 1.6 3.2 0.00 0.00 0.00 47 1018.9
20260502011654 10 333 1.6 3.2 0.00 0.00 0.00 45 1018.9
20260502011150 10 342 3.2 3.2 0.00 0.00 0.00 49 1018.9
20260502010648 10 350 1.6 3.2 0.00 0.00 0.00 49 1018.8
20260502010144 10 340 1.6 1.6 0.00 0.00 0.00 49 1018.9
20260502005641 10 343 1.6 3.2 0.00 0.00 0.00 47 1018.8
20260502005139 10 337 1.6 1.6 0.00 0.00 0.00 50 1018.5
20260502004635 10 325 1.6 3.2 0.00 0.00 0.00 49 1018.6
20260502004131 10 347 3.2 3.2 0.00 0.00 0.00 50 1018.6
20260502003630 10 12 3.2 4.8 0.00 0.00 0.00 45 1018.6
20260502003126 10 336 1.6 3.2 0.00 0.00 0.00 48 1018.6
20260502002622 10 325 3.2 6.4 0.00 0.00 0.00 43 1018.8
20260502002120 10 336 4.8 4.8 0.00 0.00 0.00 46 1018.6
20260502001617 10 329 1.6 3.2 0.00 0.00 0.00 43 1018.5
20260502001115 10 331 3.2 3.2 0.00 0.00 0.00 44 1018.5
20260502000613 10 337 4.8 4.8 0.00 0.00 0.00 43 1018.3
20260502000110 10 333 4.8 4.8 0.00 0.00 0.00 43 1018.6
20260501235605 10 18 3.2 3.2 0.00 0.00 0.00 44 1018.8
20260501235102 10 318 6.4 6.4 0.00 0.00 0.00 44 1018.8
20260501234557 10 338 4.8 6.4 0.00 0.00 0.00 42 1018.6
20260501234055 11 354 6.4 9.7 0.00 0.00 0.00 44 1018.6
20260501233553 11 18 1.6 3.2 0.00 0.00 0.00 41 1018.5
20260501233050 11 337 3.2 3.2 0.00 0.00 0.00 40 1018.4
20260501232546 10 346 6.4 6.4 0.00 0.00 0.00 41 1018.5
20260501232043 10 329 6.4 6.4 0.00 0.00 0.00 43 1018.5
20260501231541 10 334 4.8 6.4 0.00 0.00 0.00 45 1018.6
20260501231039 11 0 6.4 6.4 0.00 0.00 0.00 44 1018.9
20260501230538 10 320 6.4 6.4 0.00 0.00 0.00 46 1018.8
20260501230035 11 9 0.0 1.6 0.00 0.00 0.00 40 1018.6
20260501225532 11 335 6.4 9.7 0.00 0.00 0.00 42 1018.6
20260501225028 10 331 4.8 4.8 0.00 0.00 0.00 44 1018.9
20260501224526 10 340 4.8 6.4 0.00 0.00 0.00 43 1019.0
20260501224023 11 332 6.4 6.4 0.00 0.00 0.00 42 1019.0
20260501223520 11 320 0.0 0.0 0.00 0.00 0.00 42 1018.6
20260501223015 10 328 3.2 3.2 0.00 0.00 0.00 41 1018.9
20260501222512 11 353 6.4 9.7 0.00 0.00 0.00 47 1018.9
20260501222009 10 326 4.8 4.8 0.00 0.00 0.00 42 1019.0
20260501221505 10 15 4.8 4.8 0.00 0.00 0.00 45 1019.1
20260501221003 11 19 8.0 9.7 0.00 0.00 0.00 42 1018.6
20260501220501 10 3 1.6 1.6 0.00 0.00 0.00 42 1018.8
20260501215957 10 354 3.2 4.8 0.00 0.00 0.00 41 1019.1
20260501215454 10 25 4.8 4.8 0.00 0.00 0.00 45 1018.9
20260501214949 10 5 4.8 6.4 0.00 0.00 0.00 44 1019.0
20260501214444 11 332 4.8 4.8 0.00 0.00 0.00 42 1018.8
20260501213940 11 339 3.2 4.8 0.00 0.00 0.00 42 1018.9
20260501213438 10 29 8.0 9.7 0.00 0.00 0.00 42 1019.1
20260501212933 10 6 8.0 9.7 0.00 0.00 0.00 45 1019.1
20260501212430 11 324 8.0 9.7 0.00 0.00 0.00 46 1019.3
20260501211926 11 345 3.2 4.8 0.00 0.00 0.00 41 1019.0
20260501211424 11 334 3.2 3.2 0.00 0.00 0.00 43 1019.1
20260501210921 11 11 0.0 1.6 0.00 0.00 0.00 45 1019.2
20260501210418 11 324 3.2 4.8 0.00 0.00 0.00 41 1019.2
20260501205915 10 334 1.6 3.2 0.00 0.00 0.00 44 1019.3
20260501205412 10 337 6.4 6.4 0.00 0.00 0.00 47 1019.3
20260501204909 10 337 4.8 6.4 0.00 0.00 0.00 45 1019.6
20260501204404 10 357 6.4 9.7 0.00 0.00 0.00 45 1019.2
20260501203901 10 353 1.6 3.2 0.00 0.00 0.00 44 1019.3
20260501203358 9 47 0.0 1.6 0.00 0.00 0.00 45 1019.6
20260501202855 10 6 8.0 9.7 0.00 0.00 0.00 43 1019.5
20260501202352 10 336 4.8 4.8 0.00 0.00 0.00 43 1019.5
20260501201849 10 5 6.4 6.4 0.00 0.00 0.00 42 1019.4
20260501201346 10 11 8.0 11.3 0.00 0.00 0.00 43 1019.5
20260501200842 11 332 3.2 4.8 0.00 0.00 0.00 43 1019.5
20260501200339 10 334 3.2 4.8 0.00 0.00 0.00 45 1019.4
20260501195838 10 324 4.8 4.8 0.00 0.00 0.00 42 1019.6
20260501195333 10 9 3.2 4.8 0.00 0.00 0.00 46 1019.4
20260501194829 10 10 4.8 6.4 0.00 0.00 0.00 49 1019.5
20260501194325 10 13 1.6 3.2 0.00 0.00 0.00 46 1019.7
20260501193821 10 0 6.4 6.4 0.00 0.00 0.00 42 1019.3
20260501193320 10 26 3.2 3.2 0.00 0.00 0.00 42 1019.6
20260501192817 10 332 3.2 3.2 0.00 0.00 0.00 42 1019.5
20260501192314 10 38 4.8 4.8 0.00 0.00 0.00 43 1019.7
20260501191811 10 17 6.4 6.4 0.00 0.00 0.00 44 1019.6
20260501191309 9 359 1.6 1.6 0.00 0.00 0.00 45 1019.8
20260501190805 9 9 8.0 11.3 0.00 0.00 0.00 46 1019.6
20260501190301 9 11 1.6 3.2 0.00 0.00 0.00 48 1019.4
20260501185756 9 326 3.2 4.8 0.00 0.00 0.00 45 1019.6
20260501185252 9 2 4.8 6.4 0.00 0.00 0.00 44 1019.7
20260501184749 9 331 4.8 4.8 0.00 0.00 0.00 45 1019.5
20260501184244 9 354 3.2 3.2 0.00 0.00 0.00 49 1019.8
20260501183740 8 15 4.8 6.4 0.00 0.00 0.00 46 1019.7
20260501183238 8 358 6.4 6.4 0.00 0.00 0.00 43 1019.7
20260501182734 8 22 3.2 4.8 0.00 0.00 0.00 47 1019.8
20260501182231 8 0 8.0 9.7 0.00 0.00 0.00 49 1019.8
20260501181728 8 12 6.4 9.7 0.00 0.00 0.00 51 1019.7
20260501181225 8 31 8.0 11.3 0.00 0.00 0.00 46 1019.8